User: anonymous   Login
Location: Tierz
(42.1336°N, 0.3549°W)
Time: 03:12:19
(UTC+00:00)
Language:

YAOGAN 1 - Orbit

View from above orbital plane
View from above orbital plane
View from above satellite
View from above satellite

Ground track
Ground track

The orbit data is extracted from the following two-line orbital elements,

1 29092U 06015A   21015.50325374  .00000058  00000-0  13659-4 0  9993
2 29092  97.9236  44.2970 0001382  92.4033 267.7338 14.83121533796167
Epoch (UTC): 15 January 2021 12:04:41
Eccentricity: 0.0001382
inclination: 97.9236°
perigee height: 618 km
apogee height: 620 km
right ascension of ascending node: 44.2970°
argument of perigee: 92.4033°
revolutions per day: 14.83121533
mean anomaly at epoch: 267.7338°
orbit number at epoch: 79616

The dashed part of the orbit path shows where the satellite is in the earth's shadow,  

DLR